Location: Cruquius
(52.3348°N, 4.6319°E)
Time: 08:56:52
(UTC+00:00)

Okean 1 - Pass Details

Date: 12 May 2021
Orbit: 537 x 555 km, 82.5° (Epoch: 15 June)

Event Time Altitude Azimuth Distance (km) Brightness Sun altitude
Exits shadow 22:24:16 39° 177° (S) 832 3.7 -17.5°
Maximum altitude 22:25:40 77° 99° (E) 568 3.2 -17.6°
Drops below altitude 10° 22:29:41 10° 13° (NNE) 1,824 6.9 -17.8°
Sets 22:31:51 0° 12° (NNE) 2,720 7.9 -17.8°
